This is the latest recevied weather packets stored in our database for station/object N7CEE-2. If no packets are shown the sender has not sent any weather packets the latest 10 day(s).
| Time | Temp. | Humidity | Pressure | Rain* | Wind** | Luminosity | Snow |
|---|---|---|---|---|---|---|---|
| 1777753016 | 31.11° C | 18% | 1015.2 hPa | 0 mm | - | 975 W/m² | - |
| 1777752713 | 31.67° C | 21% | 1015.2 hPa | 0 mm | - | 970 W/m² | - |
| 1777752408 | 31.67° C | 22% | 1015.2 hPa | 0 mm | - | 972 W/m² | - |
| 1777752105 | 31.11° C | 22% | 1015.2 hPa | 0 mm | - | 983 W/m² | - |
| 1777751803 | 31.67° C | 23% | 1015.6 hPa | 0 mm | - | 984 W/m² | - |
| 1777751499 | 31.67° C | 23% | 1015.3 hPa | 0 mm | - | 988 W/m² | - |
| 1777751196 | 31.11° C | 23% | 1015.4 hPa | 0 mm | - | 1000 W/m² | - |
| 1777750893 | 31.11° C | 23% | 1015.6 hPa | 0 mm | - | 998 W/m² | - |
| 1777750589 | 31.11° C | 24% | 1015.6 hPa | 0 mm | - | 993 W/m² | - |
| 1777750287 | 31.11° C | 25% | 1015.6 hPa | 0 mm | - | 988 W/m² | - |
| 1777749982 | 31.11° C | 24% | 1015.6 hPa | 0 mm | - | 987 W/m² | - |
| 1777749680 | 31.11° C | 25% | 1015.8 hPa | 0 mm | - | 980 W/m² | - |
| 1777749376 | 31.11° C | 25% | 1015.8 hPa | 0 mm | - | 983 W/m² | - |
| 1777749074 | 31.11° C | 25% | 1015.9 hPa | 0 mm | - | 974 W/m² | - |
| 1777748771 | 31.11° C | 25% | 1015.8 hPa | 0 mm | - | 967 W/m² | - |
| 1777748469 | 32.22° C | 25% | 1016 hPa | 0 mm | - | 963 W/m² | - |
| 1777748163 | 30.56° C | 25% | 1016.1 hPa | 0 mm | - | 959 W/m² | - |
| 1777747860 | 30.56° C | 26% | 1016.2 hPa | 0 mm | - | 960 W/m² | - |
| 1777747556 | 30.56° C | 26% | 1016.2 hPa | 0 mm | - | 955 W/m² | - |
| 1777747252 | 30° C | 27% | 1016.4 hPa | 0 mm | - | 958 W/m² | - |
| 1777746949 | 30.56° C | 27% | 1016.5 hPa | 0 mm | - | 944 W/m² | - |
| 1777746645 | 30° C | 26% | 1016.5 hPa | 0 mm | - | 942 W/m² | - |
| 1777746340 | 30.56° C | 25% | 1016.6 hPa | 0 mm | - | 942 W/m² | - |
| 1777746036 | 30° C | 27% | 1016.5 hPa | 0 mm | - | 929 W/m² | - |
| 1777745734 | 30.56° C | 27% | 1016.8 hPa | 0 mm | - | 928 W/m² | - |
* Rain latest hour (hover to see other rain measurements)
** Current wind speed in m/s (hover to see current wind gust speed)